Location: *
(43.4667°N, 11.6833°E)
Time: 08:27:16
(UTC+00:00)

Cosmos 1869 - Pass Details

Date: 19 July 2019
Orbit: 534 x 549 km, 82.5° (Epoch: 21 August)

Event Time Altitude Azimuth Distance (km) Brightness Sun altitude
Rises 19:34:31 0° 350° (N) 2,699 7.7 -7.6°
Reaches altitude 10° 19:36:41 10° 349° (N) 1,801 6.8 -7.9°
Maximum altitude 19:40:38 78° 264° (W) 553 3.4 -8.5°
Drops below altitude 10° 19:44:33 10° 178° (S) 1,782 5.5 -9.0°
Enters shadow 19:45:58 - 177° (S) 2,367 6.1 -9.2°
